PTP Konstanz

Punkttermin-Prognose für Konstanz
Modell: MOSMIX (Deutscher Wetterdienst)
Modelllaufzeit: 10 UTC
Aktualisierung: stündlich
Sonntag - 20.09.2020
| Wetter - | Temperaturen | Wind | Niederschlag | Druck | Sonne
Zeit GZ | Bewölkung | TT MAX MIN TG TM | DD FF FX1 | RR1 RR24 | PPPP | SS1 SS24
02:00 Uhr | --- | --- --- --- --- --- | --- --- --- | --- | --- | ---
03:00 Uhr | --- | --- --- --- --- --- | --- --- --- | --- | --- | ---
04:00 Uhr | --- | --- --- --- --- --- | --- --- --- | --- | --- | ---
05:00 Uhr | --- | --- --- --- --- --- | --- --- --- | --- | --- | ---
06:00 Uhr | --- | --- --- --- --- --- | --- --- --- | --- | --- | ---
07:00 Uhr | --- | --- --- --- --- --- | --- --- --- | --- | --- | ---
08:00 Uhr | --- | --- --- --- --- --- | --- --- --- | --- | --- | ---
09:00 Uhr | --- | --- --- --- --- --- | --- --- --- | --- | --- | ---
10:00 Uhr | --- | --- --- --- --- --- | --- --- --- | --- | --- | ---
11:00 Uhr | --- | --- --- --- --- --- | --- --- --- | --- | --- | ---
12:00 Uhr | --- | --- --- --- --- --- | --- --- --- | --- | --- | ---
13:00 Uhr | wolkig | 20 --- --- 24 --- | NO 6 --- | 0.0 | 1014 | 0.5
14:00 Uhr | wolkig | 21 --- --- 26 --- | NO 6 --- | 0.0 | 1013 | 0.7
15:00 Uhr | wolkig | 22 --- --- 26 --- | NO 6 --- | 0.0 | 1013 | 0.7
16:00 Uhr | wolkig | 22 --- --- 25 --- | NO 6 --- | 0.0 | 1012 | 0.8
17:00 Uhr | wolkig | 22 --- --- 24 --- | O 6 --- | 0.0 | 1012 | 0.7
18:00 Uhr | wolkig | 21 --- --- 22 --- | O 6 --- | 0.0 | 1013 | 0.6
19:00 Uhr | wolkig | 20 --- --- 19 --- | S 6 --- | 0.0 | 1013 | 0.4
20:00 Uhr | wolkig | 18 23 --- 16 --- | S 6 --- | 0.0 | 1014 | 0.2
21:00 Uhr | wolkig | 17 --- --- 15 --- | SW 6 --- | 0.0 | 1014 | 0.0
22:00 Uhr | wolkig | 17 --- --- 14 --- | SW 6 --- | 0.0 | 1015 | 0.0
23:00 Uhr | wolkig | 16 --- --- 14 --- | SW 4 --- | 0.0 | 1015 | 0.0
Montag - 21.09.2020
| Wetter - | Temperaturen | Wind | Niederschlag | Druck | Sonne
Zeit GZ | Bewölkung | TT MAX MIN TG TM | DD FF FX1 | RR1 RR24 | PPPP | SS1 SS24
00:00 Uhr | wolkig | 16 --- --- 14 --- | SW 4 --- | 0.0 | 1015 | 0.0
01:00 Uhr | wolkig | 16 --- --- 14 --- | W 4 --- | 0.0 | 1015 | 0.0
02:00 Uhr | wolkig | 15 --- --- 13 --- | SW 4 --- | 0.0 | 1016 | 0.0
03:00 Uhr | wolkig | 15 --- --- 13 --- | SW 4 --- | 0.0 | 1016 | 0.0
04:00 Uhr | wolkig | 15 --- --- 13 --- | SW 4 --- | 0.0 | 1016 | 0.0
05:00 Uhr | wolkig | 14 --- --- 13 --- | SW 4 --- | 0.0 | 1016 | 0.0
06:00 Uhr | wolkig | 14 --- --- 13 --- | SW 4 --- | 0.0 | 1016 | 0.0
07:00 Uhr | wolkig | 14 --- --- 13 --- | SW 4 --- | 0.0 | 1016 | 0.0
08:00 Uhr | wolkig | 15 --- 14 14 --- | S 4 --- | 0.0 | 1016 | 0.1
09:00 Uhr | wolkig | 16 --- --- 16 --- | NO 4 --- | 0.0 | 1016 | 0.2
10:00 Uhr | wolkig | 17 --- --- 19 --- | NO 4 --- | 0.0 | 1016 | 0.2
11:00 Uhr | wolkig | 18 --- --- 21 --- | NO 4 --- | 0.0 | 1016 | 0.3
12:00 Uhr | wolkig | 19 --- --- 24 --- | NO 4 --- | 0.0 | 1016 | 0.4
13:00 Uhr | wolkig | 20 --- --- 26 --- | NO 6 --- | 0.0 | 1015 | 0.6
14:00 Uhr | wolkig | 21 --- --- 26 --- | NO 6 --- | 0.0 | 1015 | 0.6
15:00 Uhr | wolkig | 22 --- --- 26 --- | NO 4 --- | 0.0 | 1014 | 0.7
16:00 Uhr | wolkig | 22 --- --- 25 --- | O 6 --- | 0.0 | 1014 | 0.7
17:00 Uhr | wolkig | 22 --- --- 24 --- | O 4 --- | 0.0 | 1014 | 0.6
18:00 Uhr | wolkig | 21 --- --- 22 --- | SO 6 --- | 0.0 | 1014 | 0.6
19:00 Uhr | wolkig | 20 --- --- 19 --- | S 6 --- | 0.0 | 1014 | 0.4
20:00 Uhr | wolkig | 18 23 --- 17 --- | SW 6 --- | 0.0 | 1014 | 0.2
21:00 Uhr | wolkig | 18 --- --- 16 --- | SW 6 --- | 0.0 | 1015 | 0.0
22:00 Uhr | wolkig | 17 --- --- 15 --- | SW 6 --- | 0.0 | 1015 | 0.0
23:00 Uhr | wolkig | 17 --- --- 14 18 | SW 6 --- | 0.0 0.0 | 1015 | 0.0 5.5
Dienstag - 22.09.2020
| Wetter - | Temperaturen | Wind | Niederschlag | Druck | Sonne
Zeit GZ | Bewölkung | TT MAX MIN TG TM | DD FF FX1 | RR1 RR24 | PPPP | SS1 SS24
00:00 Uhr | wolkig | 16 --- --- 14 --- | SW 6 --- | 0.0 | 1015 | 0.0
01:00 Uhr | wolkig | 16 --- --- 14 --- | SW 4 --- | 0.0 | 1015 | 0.0
02:00 Uhr | wolkig | 16 --- --- 13 --- | SW 4 --- | 0.0 | 1015 | 0.0
03:00 Uhr | wolkig | 16 --- --- 13 --- | SW 4 --- | 0.0 | 1015 | 0.0
04:00 Uhr | wolkig | 15 --- --- 13 --- | SW 4 --- | 0.0 | 1015 | 0.0
05:00 Uhr | wolkig | 15 --- --- 13 --- | SW 4 --- | 0.0 | 1015 | 0.0
06:00 Uhr | wolkig | 15 --- --- 13 --- | SW 4 --- | 0.0 | 1015 | 0.0
07:00 Uhr | wolkig | 15 --- --- 13 --- | SW 6 --- | 0.0 | 1015 | 0.0
08:00 Uhr | wolkig | 16 --- 14 14 --- | SW 4 --- | 0.0 | 1015 | 0.1
09:00 Uhr | wolkig | 16 --- --- 16 --- | SW 4 --- | 0.0 | 1014 | 0.2
10:00 Uhr | wolkig | 17 --- --- 18 --- | W 4 --- | 0.0 | 1014 | 0.2
11:00 Uhr | wolkig | 18 --- --- 21 --- | NW 4 --- | 0.0 | 1014 | 0.3
12:00 Uhr | wolkig | 19 --- --- 23 --- | NW 6 --- | 0.0 | 1014 | 0.4
13:00 Uhr | wolkig | 20 --- --- 25 --- | N 6 --- | 0.0 | 1013 | 0.5
14:00 Uhr | wolkig | 21 --- --- 25 --- | N 6 --- | 0.0 | 1012 | 0.5
15:00 Uhr | wolkig | 21 --- --- 25 --- | N 6 --- | 0.0 | 1012 | 0.6
16:00 Uhr | wolkig | 21 --- --- 24 --- | SW 6 --- | 0.0 | 1011 | 0.6
17:00 Uhr | wolkig | 21 --- --- 22 --- | SW 6 --- | 0.0 | 1011 | 0.5
18:00 Uhr | wolkig | 20 --- --- 20 --- | SW 6 --- | 0.0 | 1011 | 0.4
19:00 Uhr | wolkig | 19 --- --- 18 --- | SW 6 --- | 0.0 | 1011 | 0.3
20:00 Uhr | wolkig | 18 23 --- 16 --- | SW 7 --- | 0.0 | 1011 | 0.1
21:00 Uhr | wolkig | 17 --- --- 15 --- | SW 7 --- | 0.0 | 1011 | 0.0
22:00 Uhr | wolkig | 16 --- --- 15 --- | SW 7 --- | 0.0 | 1011 | 0.0
23:00 Uhr | wolkig | 16 --- --- 15 17 | SW 7 --- | 0.0 0.0 | 1011 | 0.0 4.5
Mittwoch - 23.09.2020
| Wetter - | Temperaturen | Wind | Niederschlag | Druck | Sonne
Zeit GZ | Bewölkung | TT MAX MIN TG TM | DD FF FX3 | RR3 RR24 | PPPP | SS3 SS24
02:00 Uhr | wolkig | 16 --- --- 13 --- | SW 7 --- | 0.0 | 1011 | 0.0
05:00 Uhr | wolkig | 15 --- --- 13 --- | SW 6 --- | 0.0 | 1011 | 0.0
08:00 Uhr | stark bewölkt | 15 --- 14 14 --- | SW 6 --- | 0.0 | 1011 | 0.1
11:00 Uhr | stark bewölkt | 18 --- --- 20 --- | W 6 --- | 0.0 | 1010 | 0.6
14:00 Uhr | wolkig | 20 --- --- 23 --- | SW 7 --- | 0.0 | 1009 | 1.3
17:00 Uhr | wolkig | 20 --- --- 20 --- | SW 7 --- | 0.0 | 1008 | 1.4
20:00 Uhr | wolkig | 17 21 --- 15 --- | SW 7 --- | 0.0 | 1008 | 0.7
23:00 Uhr | wolkig | 15 --- --- 12 17 | SW 7 --- | 0.0 0.0 | 1009 | 0.0 4.1
Donnerstag - 24.09.2020
| Wetter - | Temperaturen | Wind | Niederschlag | Druck | Sonne
Zeit GZ | Bewölkung | TT MAX MIN TG TM | DD FF FX3 | RR3 RR24 | PPPP | SS3 SS24
02:00 Uhr | wolkig | 14 --- --- 11 --- | SW 7 --- | 0.0 | 1009 | 0.0
05:00 Uhr | wolkig | 14 --- --- 12 --- | SW 6 --- | 0.0 | 1008 | 0.0
08:00 Uhr | wolkig | 14 --- 13 12 --- | SW 6 --- | 0.0 | 1009 | 0.1
11:00 Uhr | wolkig | 16 --- --- 18 --- | W 7 --- | 0.0 | 1009 | 0.5
14:00 Uhr | wolkig | 18 --- --- 20 --- | W 7 --- | 0.0 | 1008 | 1.1
17:00 Uhr | wolkig | 18 --- --- 18 --- | SW 7 --- | 0.0 | 1008 | 1.2
20:00 Uhr | leichter Regen | 14 20 --- 13 --- | SW 7 --- | 3.1 | 1008 | 0.6
23:00 Uhr | leichter Regen | 13 --- --- 11 15 | SW 7 --- | 2.6 5.7 | 1008 | 0.0 3.5
Freitag - 25.09.2020
| Wetter - | Temperaturen | Wind | Niederschlag | Druck | Sonne
Zeit GZ | Bewölkung | TT MAX MIN TG TM | DD FF FX3 | RR3 RR24 | PPPP | SS3 SS24
02:00 Uhr | leichter Regen | 12 --- --- 10 --- | SW 7 --- | 1.9 | 1007 | 0.0
05:00 Uhr | leichter Regen | 12 --- --- 10 --- | SW 7 --- | 1.9 | 1006 | 0.0
08:00 Uhr | Regen | 12 --- 11 10 --- | SW 7 --- | 2.1 | 1006 | 0.0
11:00 Uhr | Regen | 13 --- --- 13 --- | W 9 --- | 3.0 | 1007 | 0.4
14:00 Uhr | Regen | 12 --- --- 14 --- | SW 9 --- | 2.7 | 1007 | 0.6
17:00 Uhr | Regen | 12 --- --- 12 --- | SW 9 --- | 2.3 | 1007 | 0.6
20:00 Uhr | Regen | 10 14 --- 10 --- | SW 9 --- | 2.3 | 1008 | 0.3
23:00 Uhr | leichter Regen | 10 --- --- 9 12 | SW 9 --- | 2.2 18.4 | 1010 | 0.0 1.9
Samstag - 26.09.2020
| Wetter - | Temperaturen | Wind | Niederschlag | Druck | Sonne
Zeit GZ | Bewölkung | TT MAX MIN TG TM | DD FF FX3 | RR3 RR24 | PPPP | SS3 SS24
02:00 Uhr | leichter Regen | 9 --- --- 8 --- | SW 9 --- | 2.4 | 1011 | 0.0
05:00 Uhr | leichter Regen | 8 --- --- 7 --- | SW 9 --- | 1.8 | 1011 | 0.0
08:00 Uhr | leichter Regen | 8 --- 7 8 --- | SW 9 --- | 1.9 | 1012 | 0.0
11:00 Uhr | leichter Regen | 10 --- --- 11 --- | W 9 --- | 1.4 | 1012 | 0.3
14:00 Uhr | leichter Regen | 11 --- --- 14 --- | W 11 --- | 0.7 | 1012 | 0.9
17:00 Uhr | leichter Regen | 11 --- --- 12 --- | W 9 --- | 0.9 | 1012 | 0.9
20:00 Uhr | leichter Regen | 9 12 --- 9 --- | SW 9 --- | 2.8 | 1013 | 0.5
23:00 Uhr | leichter Regen | 8 --- --- 7 9 | SW 9 --- | 1.6 13.5 | 1014 | 0.0 2.7
Sonntag - 27.09.2020
| Wetter - | Temperaturen | Wind | Niederschlag | Druck | Sonne
Zeit GZ | Bewölkung | TT MAX MIN TG TM | DD FF FX3 | RR3 RR24 | PPPP | SS3 SS24
02:00 Uhr | leichter Regen | 8 --- --- 6 --- | SW 7 --- | 2.1 | 1015 | 0.0
05:00 Uhr | leichter Regen | 7 --- --- 5 --- | SW 7 --- | 1.6 | 1015 | 0.0
08:00 Uhr | leichter Regen | 8 --- 7 6 --- | SW 7 --- | 1.0 | 1015 | 0.0
11:00 Uhr | wolkig | 9 --- --- 10 --- | W 7 --- | 0.0 | 1016 | 0.4
14:00 Uhr | wolkig | 11 --- --- 13 --- | W 9 --- | 0.0 | 1015 | 1.1
17:00 Uhr | wolkig | 12 --- --- 12 --- | W 9 --- | 0.0 | 1015 | 1.4
20:00 Uhr | wolkig | 10 13 --- 8 --- | SW 9 --- | 0.0 | 1016 | 0.7
23:00 Uhr | wolkig | 9 --- --- 6 9 | SW 7 --- | 0.0 4.7 | 1017 | 0.0 3.6
Montag - 28.09.2020
| Wetter - | Temperaturen | Wind | Niederschlag | Druck | Sonne
Zeit GZ | Bewölkung | TT MAX MIN TG TM | DD FF FX3 | RR3 RR24 | PPPP | SS3 SS24
02:00 Uhr | wolkig | 8 --- --- 6 --- | SW 7 --- | 0.0 | 1018 | 0.0
05:00 Uhr | wolkig | 8 --- --- 5 --- | SW 7 --- | 0.0 | 1018 | 0.0
08:00 Uhr | wolkig | 8 --- 7 7 --- | SW 7 --- | 0.0 | 1018 | 0.1
11:00 Uhr | wolkig | 11 --- --- 12 --- | NW 6 --- | 0.0 | 1018 | 0.6
14:00 Uhr | wolkig | 13 --- --- 16 --- | NW 7 --- | 0.0 | 1017 | 1.4
17:00 Uhr | wolkig | 14 --- --- 14 --- | W 7 --- | 0.0 | 1017 | 1.7
20:00 Uhr | wolkig | 11 15 --- 9 --- | SW 7 --- | 0.0 | 1018 | 0.8
23:00 Uhr | wolkig | 10 --- --- 7 10 | SW 7 --- | 0.0 0.0 | 1018 | 0.0 4.5
Dienstag - 29.09.2020
| Wetter - | Temperaturen | Wind | Niederschlag | Druck | Sonne
Zeit GZ | Bewölkung | TT MAX MIN TG TM | DD FF FX3 | RR3 RR24 | PPPP | SS3 SS24
02:00 Uhr | wolkig | 9 --- --- 7 --- | SW 6 --- | 0.0 | 1018 | 0.0
05:00 Uhr | wolkig | 8 --- --- 6 --- | SW 6 --- | 0.0 | 1018 | 0.0
08:00 Uhr | wolkig | 9 --- 7 7 --- | SW 6 --- | 0.0 | 1019 | 0.1
11:00 Uhr | wolkig | 11 --- --- 13 --- | N 6 --- | 0.0 | 1019 | 0.6
14:00 Uhr | wolkig | 13 --- --- 17 --- | NO 7 --- | 0.0 | 1018 | 1.4
17:00 Uhr | wolkig | 14 --- --- 15 --- | NO 7 --- | 0.0 | 1017 | 1.7
20:00 Uhr | wolkig | 11 15 --- 9 --- | SW 7 --- | 0.0 | 1018 | 0.9
23:00 Uhr | wolkig | 10 --- --- 7 11 | SW 7 --- | 0.0 0.0 | 1019 | 0.0 4.6
Mittwoch - 30.09.2020
| Wetter - | Temperaturen | Wind | Niederschlag | Druck | Sonne
Zeit GZ | Bewölkung | TT MAX MIN TG TM | DD FF FX3 | RR3 RR24 | PPPP | SS3 SS24
02:00 Uhr | wolkig | 9 --- --- 7 --- | SW 6 --- | 0.0 | 1019 | 0.0
05:00 Uhr | wolkig | 9 --- --- 7 --- | SW 6 --- | 0.0 | 1019 | 0.0
08:00 Uhr | wolkig | 9 --- 8 8 --- | SW 6 --- | 0.0 | 1019 | 0.1
11:00 Uhr | wolkig | 12 --- --- 14 --- | NO 6 --- | 0.0 | 1019 | 0.7
---:00 Uhr | --- | --- --- --- --- --- | --- --- --- | --- | --- | ---
---:00 Uhr | --- | --- --- --- --- --- | --- --- --- | --- | --- | ---
---:00 Uhr | --- | --- --- --- --- --- | --- --- --- | --- | --- | ---
---:00 Uhr | --- | --- --- --- --- --- | --- --- --- | --- --- | --- | ---


Wetter : Wetter/Bewölkung zum Termin (aktuelle Stunde) TT : Lufttemperatur in Grad Celsius zum Termin MAX : Maximum Lufttemperatur in Grad Celsius letzte 12 Stunden MIN : Minimum Lufttemperatur der vergangenen Nacht in Grad Celsius letzte 12 Stunden TG : Temperatur in 5cm überm Erdboden TM : Tagesmittel Lufttemperatur in Grad Celsius letzte 24 Stunden DD : Windrichtung zum Termin FF : Windgeschwindigkeit zum Termin FX1 : höchste Windspitze im Bezugszeitraum letzte 1 Stunde in km/h FX3 : höchste Windspitze im Bezugszeitraum letzte 3 Stunden in km/h PPPP : reduzierter Luftdruck auf Meereshöhe in hPa zum Termin RR1 : Niederschlagsmenge im Bezugszeitraum letzte 1 Stunde in mm = l/qm RR3 : Niederschlagsmenge im Bezugszeitraum letzte 3 Stunden in mm = l/qm RR24 : Niederschlagsmenge im Bezugszeitraum letzte 24 Stunden in mm = l/qm SS1 : Sonnenscheindauer letzte 1 Stunde SS3 : Sonnenscheindauer letzte 3 Stunden SS24 : Sonnenscheindauer letzte 24 Stunden --- : Wert nicht vorhanden